Time,TemperatureF,DewpointF,PressureIn,WindDirection,WindDirectionDegrees,WindSpeedMPH,WindSpeedGustMPH,Humidity,HourlyPrecipIn,Conditions,Clouds,dailyrainin,SoftwareType,DateUTC
2013-01-14 00:09:00,45.6,16.0,30.14,ENE,58,4.0,-999.0,30,-99.99,,,0.00,weatherlink.com 1.10,2013-01-14 08:09:00,
2013-01-14 00:24:00,46.0,15.0,30.15,NE,38,5.0,-999.0,29,-99.99,,,0.00,weatherlink.com 1.10,2013-01-14 08:24:00,
2013-01-14 00:39:00,46.4,14.0,30.16,NE,38,13.0,-999.0,27,-99.99,,,0.00,weatherlink.com 1.10,2013-01-14 08:39:00,
2013-01-14 00:54:00,46.3,14.0,30.16,NE,51,10.0,-999.0,27,-99.99,,,0.00,weatherlink.com 1.10,2013-01-14 08:54:00,
2013-01-14 01:09:00,46.1,12.0,30.17,ENE,57,11.0,-999.0,25,-99.99,,,0.00,weatherlink.com 1.10,2013-01-14 09:09:00,
2013-01-14 01:24:00,46.1,11.0,30.18,NE,56,7.0,-999.0,24,-99.99,,,0.00,weatherlink.com 1.10,2013-01-14 09:24:00,
2013-01-14 01:39:00,45.6,11.0,30.18,NE,45,5.0,-999.0,24,-99.99,,,0.00,weatherlink.com 1.10,2013-01-14 09:39:00,
2013-01-14 01:54:00,45.6,11.0,30.19,NE,52,11.0,-999.0,24,-99.99,,,0.00,weatherlink.com 1.10,2013-01-14 09:54:00,
2013-01-14 02:09:00,45.4,10.0,30.19,NE,46,6.0,-999.0,24,-99.99,,,0.00,weatherlink.com 1.10,2013-01-14 10:09:00,
2013-01-14 02:24:00,45.2,10.0,30.20,ENE,57,8.0,-999.0,24,-99.99,,,0.00,weatherlink.com 1.10,2013-01-14 10:24:00,
2013-01-14 02:39:00,45.1,10.0,30.20,NE,38,11.0,-999.0,24,-99.99,,,0.00,weatherlink.com 1.10,2013-01-14 10:39:00,
2013-01-14 02:54:00,44.9,10.0,30.20,ENE,61,10.0,-999.0,24,-99.99,,,0.00,weatherlink.com 1.10,2013-01-14 10:54:00,
2013-01-14 03:09:00,44.3,10.0,30.20,NE,49,6.0,-999.0,25,-99.99,,,0.00,weatherlink.com 1.10,2013-01-14 11:09:00,
2013-01-14 03:24:00,44.0,10.0,30.20,NE,53,3.0,-999.0,25,-99.99,,,0.00,weatherlink.com 1.10,2013-01-14 11:24:00,
2013-01-14 03:39:00,43.8,10.0,30.20,NNE,30,3.0,-999.0,25,-99.99,,,0.00,weatherlink.com 1.10,2013-01-14 11:39:00,
2013-01-14 03:54:00,43.3,10.0,30.20,NE,42,9.0,-999.0,25,-99.99,,,0.00,weatherlink.com 1.10,2013-01-14 11:54:00,
2013-01-14 04:09:00,43.2,9.0,30.20,NE,50,2.0,-999.0,25,-99.99,,,0.00,weatherlink.com 1.10,2013-01-14 12:09:00,
2013-01-14 04:24:00,43.0,9.0,30.20,NE,43,5.0,-999.0,25,-99.99,,,0.00,weatherlink.com 1.10,2013-01-14 12:24:00,
2013-01-14 04:39:00,43.0,9.0,30.20,NE,35,3.0,-999.0,25,-99.99,,,0.00,weatherlink.com 1.10,2013-01-14 12:39:00,
2013-01-14 04:54:00,43.3,9.0,30.20,ENE,62,5.0,-999.0,24,-99.99,,,0.00,weatherlink.com 1.10,2013-01-14 12:54:00,
2013-01-14 05:09:00,43.1,8.0,30.21,ENE,72,5.0,-999.0,24,-99.99,,,0.00,weatherlink.com 1.10,2013-01-14 13:09:00,
2013-01-14 05:24:00,42.8,8.0,30.21,East,83,2.0,-999.0,24,-99.99,,,0.00,weatherlink.com 1.10,2013-01-14 13:24:00,
2013-01-14 05:39:00,42.7,8.0,30.21,ENE,57,3.0,-999.0,24,-99.99,,,0.00,weatherlink.com 1.10,2013-01-14 13:39:00,
2013-01-14 05:54:00,42.8,6.0,30.21,NE,51,4.0,-999.0,22,-99.99,,,0.00,weatherlink.com 1.10,2013-01-14 13:54:00,
2013-01-14 06:09:00,42.6,6.0,30.22,ENE,63,3.0,-999.0,22,-99.99,,,0.00,weatherlink.com 1.10,2013-01-14 14:09:00,
2013-01-14 06:24:00,41.9,6.0,30.23,ENE,60,2.0,-999.0,23,-99.99,,,0.00,weatherlink.com 1.10,2013-01-14 14:24:00,
2013-01-14 06:39:00,42.5,4.0,30.23,NE,40,6.0,-999.0,20,-99.99,,,0.00,weatherlink.com 1.10,2013-01-14 14:39:00,
2013-01-14 06:54:00,42.6,3.0,30.24,NE,36,7.0,-999.0,19,-99.99,,,0.00,weatherlink.com 1.10,2013-01-14 14:54:00,
2013-01-14 07:09:00,43.1,2.0,30.25,ENE,59,6.0,-999.0,18,-99.99,,,0.00,weatherlink.com 1.10,2013-01-14 15:09:00,
2013-01-14 07:24:00,43.8,1.0,30.25,ENE,65,9.0,-999.0,17,-99.99,,,0.00,weatherlink.com 1.10,2013-01-14 15:24:00,
2013-01-14 07:39:00,44.4,1.0,30.27,NE,53,10.0,-999.0,16,-99.99,,,0.00,weatherlink.com 1.10,2013-01-14 15:39:00,
2013-01-14 07:54:00,44.7,1.0,30.27,NE,41,16.0,-999.0,16,-99.99,,,0.00,weatherlink.com 1.10,2013-01-14 15:54:00,
2013-01-14 08:09:00,45.0,2.0,30.28,NE,42,3.0,-999.0,17,-99.99,,,0.00,weatherlink.com 1.10,2013-01-14 16:09:00,
2013-01-14 08:24:00,45.8,2.0,30.29,NNE,30,6.0,-999.0,16,-99.99,,,0.00,weatherlink.com 1.10,2013-01-14 16:24:00,
2013-01-14 08:39:00,46.5,2.0,30.29,NE,38,13.0,-999.0,16,-99.99,,,0.00,weatherlink.com 1.10,2013-01-14 16:39:00,
2013-01-14 08:54:00,46.9,3.0,30.30,NE,41,11.0,-999.0,16,-99.99,,,0.00,weatherlink.com 1.10,2013-01-14 16:54:00,
2013-01-14 09:09:00,47.0,3.0,30.30,ENE,72,14.0,-999.0,16,-99.99,,,0.00,weatherlink.com 1.10,2013-01-14 17:09:00,
2013-01-14 09:24:00,47.4,2.0,30.30,East,80,11.0,-999.0,15,-99.99,,,0.00,weatherlink.com 1.10,2013-01-14 17:24:00,
2013-01-14 09:39:00,48.1,1.0,30.30,NE,52,19.0,-999.0,14,-99.99,,,0.00,weatherlink.com 1.10,2013-01-14 17:39:00,
2013-01-14 09:54:00,48.8,3.0,30.30,ENE,71,11.0,-999.0,15,-99.99,,,0.00,weatherlink.com 1.10,2013-01-14 17:54:00,
2013-01-14 10:09:00,49.6,4.0,30.30,NNE,20,10.0,-999.0,15,-99.99,,,0.00,weatherlink.com 1.10,2013-01-14 18:09:00,
2013-01-14 10:24:00,50.0,4.0,30.30,NE,49,10.0,-999.0,15,-99.99,,,0.00,weatherlink.com 1.10,2013-01-14 18:24:00,
2013-01-14 10:39:00,50.6,4.0,30.30,NNE,22,3.0,-999.0,15,-99.99,,,0.00,weatherlink.com 1.10,2013-01-14 18:39:00,
2013-01-14 10:54:00,51.4,3.0,30.29,ENE,71,9.0,-999.0,14,-99.99,,,0.00,weatherlink.com 1.10,2013-01-14 18:54:00,
2013-01-14 11:09:00,52.3,4.0,30.29,NE,47,5.0,-999.0,14,-99.99,,,0.00,weatherlink.com 1.10,2013-01-14 19:09:00,
2013-01-14 11:24:00,52.7,1.0,30.27,North,9,4.0,-999.0,12,-99.99,,,0.00,weatherlink.com 1.10,2013-01-14 19:24:00,
2013-01-14 11:39:00,53.8,4.0,30.27,NE,53,6.0,-999.0,13,-99.99,,,0.00,weatherlink.com 1.10,2013-01-14 19:39:00,
2013-01-14 11:54:00,53.4,2.0,30.27,ENE,65,6.0,-999.0,12,-99.99,,,0.00,weatherlink.com 1.10,2013-01-14 19:54:00,
2013-01-14 12:09:00,53.2,2.0,30.26,NNE,28,4.0,-999.0,12,-99.99,,,0.00,weatherlink.com 1.10,2013-01-14 20:09:00,
2013-01-14 12:24:00,53.9,2.0,30.26,ENE,68,2.0,-999.0,12,-99.99,,,0.00,weatherlink.com 1.10,2013-01-14 20:24:00,
2013-01-14 12:39:00,54.6,4.0,30.26,NNW,333,3.0,-999.0,13,-99.99,,,0.00,weatherlink.com 1.10,2013-01-14 20:39:00,
2013-01-14 12:54:00,54.6,8.0,30.26,NNW,329,5.0,-999.0,15,-99.99,,,0.00,weatherlink.com 1.10,2013-01-14 20:54:00,
2013-01-14 13:09:00,54.3,4.0,30.26,NNE,15,0.0,-999.0,13,-99.99,,,0.00,weatherlink.com 1.10,2013-01-14 21:09:00,
2013-01-14 13:24:00,55.0,3.0,30.25,NNE,30,2.0,-999.0,12,-99.99,,,0.00,weatherlink.com 1.10,2013-01-14 21:24:00,
2013-01-14 13:39:00,54.8,6.0,30.26,ENE,78,0.0,-999.0,14,-99.99,,,0.00,weatherlink.com 1.10,2013-01-14 21:39:00,
2013-01-14 13:54:00,54.8,3.0,30.26,NW,325,1.0,-999.0,12,-99.99,,,0.00,weatherlink.com 1.10,2013-01-14 21:54:00,
2013-01-14 14:09:00,56.0,17.0,30.25,SW,236,2.0,-999.0,22,-99.99,,,0.00,weatherlink.com 1.10,2013-01-14 22:09:00,
2013-01-14 14:24:00,58.0,18.0,30.26,West,263,2.0,-999.0,21,-99.99,,,0.00,weatherlink.com 1.10,2013-01-14 22:24:00,
2013-01-14 14:39:00,58.0,19.0,30.26,WSW,252,4.0,-999.0,22,-99.99,,,0.00,weatherlink.com 1.10,2013-01-14 22:39:00,
2013-01-14 14:54:00,57.9,20.0,30.27,WSW,257,2.0,-999.0,23,-99.99,,,0.00,weatherlink.com 1.10,2013-01-14 22:54:00,
2013-01-14 15:09:00,57.6,24.0,30.27,West,264,0.0,-999.0,27,-99.99,,,0.00,weatherlink.com 1.10,2013-01-14 23:09:00,
2013-01-14 15:24:00,57.4,24.0,30.27,West,275,1.0,-999.0,28,-99.99,,,0.00,weatherlink.com 1.10,2013-01-14 23:24:00,
2013-01-14 15:39:00,56.4,24.0,30.27,WSW,247,3.0,-999.0,29,-99.99,,,0.00,weatherlink.com 1.10,2013-01-14 23:39:00,
2013-01-14 15:54:00,55.7,25.0,30.27,WSW,238,2.0,-999.0,31,-99.99,,,0.00,weatherlink.com 1.10,2013-01-14 23:54:00,
2013-01-14 16:09:00,55.4,24.0,30.28,WNW,284,4.0,-999.0,30,-99.99,,,0.00,weatherlink.com 1.10,2013-01-15 00:09:00,
2013-01-14 16:24:00,55.0,25.0,30.28,West,267,4.0,-999.0,31,-99.99,,,0.00,weatherlink.com 1.10,2013-01-15 00:24:00,
2013-01-14 16:39:00,53.3,26.0,30.28,WSW,254,2.0,-999.0,35,-99.99,,,0.00,weatherlink.com 1.10,2013-01-15 00:39:00,
2013-01-14 16:54:00,52.1,25.0,30.29,WSW,248,0.0,-999.0,35,-99.99,,,0.00,weatherlink.com 1.10,2013-01-15 00:54:00,
2013-01-14 17:09:00,51.7,28.0,30.29,West,261,1.0,-999.0,40,-99.99,,,0.00,weatherlink.com 1.10,2013-01-15 01:09:00,
2013-01-14 17:24:00,50.8,26.0,30.29,WSW,256,0.0,-999.0,39,-99.99,,,0.00,weatherlink.com 1.10,2013-01-15 01:24:00,
2013-01-14 17:39:00,49.3,27.0,30.30,WSW,256,4.0,-999.0,43,-99.99,,,0.00,weatherlink.com 1.10,2013-01-15 01:39:00,
2013-01-14 17:54:00,48.3,29.0,30.30,West,269,0.0,-999.0,47,-99.99,,,0.00,weatherlink.com 1.10,2013-01-15 01:54:00,
2013-01-14 18:09:00,47.6,29.0,30.30,West,269,0.0,-999.0,49,-99.99,,,0.00,weatherlink.com 1.10,2013-01-15 02:09:00,
2013-01-14 18:24:00,47.7,30.0,30.30,West,269,0.0,-999.0,51,-99.99,,,0.00,weatherlink.com 1.10,2013-01-15 02:24:00,
2013-01-14 18:39:00,48.1,31.0,30.31,West,269,0.0,-999.0,51,-99.99,,,0.00,weatherlink.com 1.10,2013-01-15 02:39:00,
2013-01-14 18:54:00,48.6,31.0,30.31,SW,233,1.0,-999.0,50,-99.99,,,0.00,weatherlink.com 1.10,2013-01-15 02:54:00,
2013-01-14 19:09:00,48.7,27.0,30.31,SSE,152,4.0,-999.0,44,-99.99,,,0.00,weatherlink.com 1.10,2013-01-15 03:09:00,
2013-01-14 19:24:00,48.7,24.0,30.32,NE,41,0.0,-999.0,38,-99.99,,,0.00,weatherlink.com 1.10,2013-01-15 03:24:00,
2013-01-14 19:39:00,47.4,25.0,30.32,NE,41,0.0,-999.0,42,-99.99,,,0.00,weatherlink.com 1.10,2013-01-15 03:39:00,
2013-01-14 19:54:00,45.9,26.0,30.32,NE,41,0.0,-999.0,46,-99.99,,,0.00,weatherlink.com 1.10,2013-01-15 03:54:00,
2013-01-14 20:09:00,44.8,25.0,30.31,NE,40,0.0,-999.0,46,-99.99,,,0.00,weatherlink.com 1.10,2013-01-15 04:09:00,
2013-01-14 20:24:00,44.0,20.0,30.31,North,360,0.0,-999.0,39,-99.99,,,0.00,weatherlink.com 1.10,2013-01-15 04:24:00,
2013-01-14 20:39:00,43.9,21.0,30.30,North,5,0.0,-999.0,41,-99.99,,,0.00,weatherlink.com 1.10,2013-01-15 04:39:00,
2013-01-14 20:54:00,43.8,16.0,30.32,NE,42,0.0,-999.0,32,-99.99,,,0.00,weatherlink.com 1.10,2013-01-15 04:54:00,
2013-01-14 21:09:00,48.0,11.0,30.31,ENE,57,4.0,-999.0,22,-99.99,,,0.00,weatherlink.com 1.10,2013-01-15 05:09:00,
2013-01-14 21:24:00,49.4,10.0,30.32,ENE,57,2.0,-999.0,20,-99.99,,,0.00,weatherlink.com 1.10,2013-01-15 05:24:00,
2013-01-14 21:39:00,48.7,9.0,30.32,NE,51,5.0,-999.0,20,-99.99,,,0.00,weatherlink.com 1.10,2013-01-15 05:39:00,
2013-01-14 21:54:00,47.2,11.0,30.32,NNE,15,1.0,-999.0,23,-99.99,,,0.00,weatherlink.com 1.10,2013-01-15 05:54:00,
2013-01-14 22:09:00,45.8,13.0,30.32,NNE,12,0.0,-999.0,27,-99.99,,,0.00,weatherlink.com 1.10,2013-01-15 06:09:00,
2013-01-14 22:24:00,44.8,14.0,30.32,NNE,12,0.0,-999.0,29,-99.99,,,0.00,weatherlink.com 1.10,2013-01-15 06:24:00,
2013-01-14 22:39:00,44.1,21.0,30.32,North,9,0.0,-999.0,40,-99.99,,,0.00,weatherlink.com 1.10,2013-01-15 06:39:00,
2013-01-14 22:54:00,43.6,16.0,30.33,NNW,335,3.0,-999.0,33,-99.99,,,0.00,weatherlink.com 1.10,2013-01-15 06:54:00,
2013-01-14 23:09:00,43.8,16.0,30.33,NNE,29,0.0,-999.0,33,-99.99,,,0.00,weatherlink.com 1.10,2013-01-15 07:09:00,
2013-01-14 23:24:00,45.2,14.0,30.34,NE,36,0.0,-999.0,28,-99.99,,,0.00,weatherlink.com 1.10,2013-01-15 07:24:00,
2013-01-14 23:39:00,45.6,13.0,30.35,NE,40,0.0,-999.0,27,-99.99,,,0.00,weatherlink.com 1.10,2013-01-15 07:39:00,
2013-01-14 23:54:00,45.5,18.0,30.34,ESE,120,0.0,-999.0,33,-99.99,,,0.00,weatherlink.com 1.10,2013-01-15 07:54:00,